DELTA 1 DEB, 10713

Orbit data source: Space-Track

DELTA 1 DEB, 10713 is space debris in SSO originally from a launch on Thu, 29 Jul 1976 UTC launched from the Air Force Western Test Range (AFWTR). Debris objects in space refer to the collection of defunct objects orbiting the Earth. Examples of debris include non-operational satellites, rocket bodies, and fragments generated from explosions, collisions, or faulty payload assembly.

Loading next visibility...
Identifier
10713, 1976-077AJ
Orbit
SSO
Country
Flag of USUS
Related business
Manufacturer
Unknown
Mission
Spacecraft
Bus & Motor
Unknown
Mass
Unknown
Launch date (UTC)
1976-07-29 (50 years ago)
Launch vehicle
Unknown
Launch site
Air Force Western Test Range (AFWTR)
Object type
Payload
Rocket body
Debris
Shape & HBR
Unknown shape, 1.1 m
Radar Cross Section
Small (<0.1 m²)

Expand to show TLE details & history
Last TLE update: 17 hours ago

TLE from 17 hours ago
0 DELTA 1 DEB
1 10713U 76077AJ  26127.50293490  .00001689  00000-0  49910-2 0  9998
2 10713 101.5641 317.7239 0124248 337.2242  47.7655 13.07615552322262
Epoch: 2026-05-07T12:04Z
TLE epoch observation values (Epoch: 2026-05-07T12:04:13.575Z)
Latitude
25.51984°
Longitude
-94.25805°
Altitude
1,172.344 km
Speed
7.299 km/s
True Right ascension
20h 48m 35s
True Declination
25° 23' 37"
Sunlit
Object was in daylight at epoch
Visualization orbit readout
Latitude
Unknown
Longitude
Unknown
Altitude
Unknown
Speed
Unknown
Apparent Right ascension
Unknown
Apparent Declination
Unknown
Sunlit
N/A
Visualization observer readout
Local Sidereal Time
13:27:16
Azimuth
Unknown
Elevation
Unknown
Doppler factor
Unknown
Orbital elements
Apogee altitude
1,324.385 km
Perigee altitude
1,135.329 km
Semi-major axis
7,607.994 km
Eccentricity
0.01242
Inclination
101.5641°
RAAN
317.7239°
Arg. of periapsis
337.2242°
True anomaly
48.83072°
Mean anomaly
47.7655°
Eccentric anomaly
48.297°
Mean motion
3.27068 °/min
Orbital period
110.07 mins
BSTAR
0.004991
Loading maneuver chart data...
Computing Atmospheric mass density...
Loading historical data...
Loading historical data...
Loading historical data...
Loading historical data...
Loading historical data...
Loading historical data...
Loading historical data...

Documentation

Showing up to 5 results
|